[[{"header":{"parameterUnit":"m.s-1","parameterCategory":1,"la1":30.2991,"la2":30.254,"lo1":-89.0895,"lo2":-89.0444,"dy":0.0017,"dx":0.0017,"nx":28,"ny":28,"refTime":"2023-09-12T09:00:00:Z","depth":0,"parameterNumber":2,"parameterNumberName":"U-component_of_WINDS"},"data":[0,0,0,0,0,0,0,0,0,0,0,0,0,0,0,0,0,0,0,0,0,0,0,0,0,0,0,0,0,0,0,0,0,0,0,0,0,0,0,0,0,0,0,0,0,0,0,0,0,0,0,0,0,0,0,0,0,0,1.261,1.261,0,1.2643,1.2643,1.2644,1.2659,1.2659,1.2658,1.2658,1.2693,1.2694,1.2695,0,0,0,0,0,0,0,0,0,0,0,0,0,1.2561,1.2562,1.261,1.261,1.2611,1.2643,1.2643,1.2644,1.2659,1.2659,1.2658,1.2658,1.2693,1.2694,1.2695,0,0,0,0,0,0,0,0,0,0,0,0,0,1.2587,1.2562,1.261,1.2622,1.2623,1.2643,1.2643,1.2644,1.2659,1.2659,1.2658,1.2658,1.2692,1.2694,1.2695,1.2705,0,0,1.2699,1.27,0,0,0,0,0,0,0,0,1.2585,1.2589,1.262,1.2621,1.2623,1.2647,1.2639,1.2665,1.2659,1.2645,1.2658,1.2658,1.2678,1.268,1.2687,1.2707,1.2708,1.2699,1.27,1.2701,1.2701,0,0,0,0,0,0,0,1.2584,1.2587,1.2623,1.262,1.2622,1.2626,1.263,1.2644,1.2661,1.2646,1.2648,1.2651,1.2678,1.2685,1.2687,1.2709,1.2699,1.2701,1.2702,1.2702,1.274,1.274,0,0,0,0,0,0,1.258,1.2586,1.2622,1.2624,1.2604,1.2627,1.2631,1.2639,1.2661,1.2665,1.2651,1.2652,1.2683,1.2686,1.2689,1.2703,1.2701,1.2702,1.2703,1.274,1.274,1.274,0,0,0,0,0,0,1.2579,1.2583,1.2621,1.2605,1.261,1.2628,1.2637,1.264,1.2646,1.2665,1.2668,1.2655,1.2683,1.2687,1.2701,1.2704,1.2703,1.2704,1.274,1.274,1.274,1.2731,0,0,0,0,0,0,1.2577,1.2582,1.2586,1.2605,1.2611,1.2632,1.2637,1.264,1.2649,1.265,1.2669,1.2672,1.2683,1.2699,1.2703,1.2706,1.2705,1.274,1.274,1.274,1.2731,1.273,1.273,0,0,0,0,0,1.2575,1.2582,1.2586,1.259,1.2616,1.2632,1.2636,1.2648,1.2649,1.2653,1.2665,1.2672,1.2703,1.27,1.2705,1.2709,1.274,1.274,1.274,1.2731,1.273,1.273,0,0,0,0,0,0,1.2562,1.2584,1.2589,1.2602,1.2615,1.2635,1.264,1.2647,1.266,1.266,1.2675,1.2679,1.2693,1.2702,1.2698,1.272,1.2722,1.2723,1.2713,1.2713,1.2713,1.2711,1.2707,0,0,0,0,0,1.2561,1.2572,1.2591,1.26,1.2606,1.2622,1.263,1.2638,1.2652,1.2658,1.2671,1.2684,1.2698,1.2706,1.2719,1.2732,1.2737,1.2737,1.2737,1.2737,1.2738,1.2746,1.2747,1.2742,1.2742,1.2742,0,0,1.2558,1.2571,1.2577,1.2598,1.2609,1.2621,1.2627,1.2638,1.2647,1.266,1.2674,1.2684,1.2701,1.2715,1.2722,1.2723,1.274,1.2737,1.2737,1.2738,1.2747,1.2747,1.2748,1.2742,1.2742,1.2742,0,0,1.2558,1.2569,1.2579,1.259,1.2607,1.2618,1.262,1.2639,1.2646,1.2661,1.2671,1.2682,1.2704,1.2716,1.2724,1.2731,1.2738,1.2735,1.2733,1.2742,1.2742,1.2743,1.2746,1.2746,1.2736,1.2736,1.2736,0,1.2553,1.257,1.2583,1.2595,1.2604,1.2616,1.2626,1.2636,1.2656,1.2663,1.2664,1.2693,1.2705,1.2722,1.2724,1.273,1.2734,1.2733,1.2741,1.2742,1.2742,1.2745,1.2746,1.2735,1.2735,1.2735,1.2735,0,1.2563,1.2575,1.2581,1.26,1.261,1.2621,1.2636,1.2644,1.2652,1.2663,1.2679,1.2693,1.271,1.2715,1.2722,1.2734,1.2734,1.2738,1.274,1.2742,1.2745,1.2746,1.2735,1.2735,1.2735,1.2735,0,0,1.2555,1.2583,1.2585,1.2594,1.2614,1.2624,1.2636,1.2652,1.266,1.2674,1.2684,1.2703,1.2707,1.2717,1.2726,1.2734,1.2739,1.2737,1.2738,1.2737,1.2753,1.275,1.2752,1.2744,1.2744,1.2744,1.2752,0,1.2559,1.258,1.2593,1.261,1.2621,1.2634,1.2644,1.2658,1.2668,1.268,1.2692,1.2706,1.271,1.2716,1.2724,1.2737,1.2742,1.2736,1.2754,1.2755,1.275,1.2753,1.275,1.2757,1.2753,1.2754,1.2754,0,1.2566,1.258,1.2598,1.2618,1.2623,1.2632,1.2649,1.266,1.2676,1.2684,1.2695,1.2705,1.2718,1.272,1.2739,1.2735,1.2743,1.2751,1.2751,1.2753,1.2754,1.2756,1.2759,1.276,1.2756,1.2756,1.2755,0,1.256,1.2583,1.2597,1.2605,1.2628,1.2634,1.2644,1.266,1.267,1.2685,1.2691,1.2707,1.2716,1.2729,1.2742,1.2742,1.2761,1.2763,1.2768,1.2767,1.2771,1.2771,1.2776,1.2776,1.2776,1.2776,1.2776,0,1.2563,1.2573,1.2594,1.2603,1.2615,1.263,1.2642,1.2653,1.2668,1.2679,1.2691,1.2701,1.2719,1.2732,1.2743,1.2758,1.2761,1.2768,1.2771,1.2767,1.2766,1.2773,1.2773,1.2776,1.2776,1.2776,1.2776,0,1.2557,1.2572,1.2588,1.2609,1.2615,1.2623,1.2641,1.265,1.2662,1.2676,1.268,1.2699,1.2715,1.273,1.2751,1.2758,1.2774,1.2777,1.2768,1.277,1.2774,1.2773,1.2784,1.2786,1.2784,1.2784,1.2784,0,1.2558,1.2567,1.2589,1.2598,1.2607,1.2621,1.2631,1.2646,1.2656,1.2676,1.2683,1.27,1.2714,1.2739,1.2754,1.2771,1.2775,1.2777,1.2777,1.2774,1.2776,1.2775,1.2776,1.2777,1.2777,1.2777,1.2777,0,1.2559,1.2566,1.258,1.2596,1.2608,1.2622,1.2636,1.2642,1.266,1.2671,1.2688,1.2699,1.2721,1.2738,1.2756,1.2767,1.2775,1.2777,1.2779,1.2775,1.277,1.2774,1.2768,1.2777,1.2777,1.2777,1.2777,1.2777,1.2557,1.2566,1.2583,1.2598,1.2611,1.2624,1.2634,1.2647,1.2661,1.268,1.2688,1.2705,1.2722,1.2748,1.2759,1.2773,1.2775,1.2778,1.2778,1.2779,1.2778,1.2768,1.2776,1.2776,1.2776,1.2776,1.2776,0,1.2559,1.2571,1.2585,1.2604,1.2617,1.2624,1.264,1.265,1.2665,1.268,1.2694,1.2713,1.273,1.2747,1.2765,1.2773,1.2777,1.2777,1.2777,1.2779,1.2775,1.2772,1.2773,1.2773,1.2773,1.2773,1.2773,1.2773,1.2561,1.2576,1.2585,1.2607,1.2619,1.2636,1.2645,1.2657,1.267,1.2691,1.2705,1.2716,1.2732,1.2751,1.2767,1.2772,1.2778,1.2777,1.2783,1.2779,1.2779,1.2779,1.2776,1.2778,1.2778,1.2785,1.2785,1.2786]},{"header":{"parameterUnit":"m.s-1","parameterCategory":1,"la1":30.2991,"la2":30.254,"lo1":-89.0895,"lo2":-89.0444,"dy":0.0017,"dx":0.0017,"nx":28,"ny":28,"refTime":"2023-09-12T09:00:00:Z","depth":0,"parameterNumber":3,"parameterNumberName":"V-component_of_WINDS"},"data":[0,0,0,0,0,0,0,0,0,0,0,0,0,0,0,0,0,0,0,0,0,0,0,0,0,0,0,0,0,0,0,0,0,0,0,0,0,0,0,0,0,0,0,0,0,0,0,0,0,0,0,0,0,0,0,0,0,0,0.585,0.585,0,0.587,0.587,0.587,0.5874,0.5874,0.5874,0.5874,0.5893,0.5893,0.5894,0,0,0,0,0,0,0,0,0,0,0,0,0,0.5812,0.5812,0.585,0.585,0.585,0.587,0.587,0.587,0.5875,0.5874,0.5874,0.5874,0.5892,0.5893,0.5894,0,0,0,0,0,0,0,0,0,0,0,0,0,0.5829,0.5812,0.585,0.5855,0.5856,0.587,0.587,0.587,0.5875,0.5874,0.5874,0.5874,0.5892,0.5893,0.5894,0.5904,0,0,0.5897,0.5897,0,0,0,0,0,0,0,0,0.5828,0.5831,0.5854,0.5855,0.5855,0.5869,0.5863,0.5881,0.5875,0.5867,0.5874,0.5874,0.5885,0.5886,0.5891,0.5905,0.5905,0.5897,0.5897,0.5898,0.5898,0,0,0,0,0,0,0,0.5827,0.583,0.5858,0.5854,0.5855,0.5855,0.5857,0.5867,0.5877,0.5868,0.5868,0.5871,0.5885,0.589,0.5891,0.5906,0.5897,0.5898,0.5898,0.5899,0.5924,0.5924,0,0,0,0,0,0,0.5825,0.5829,0.5857,0.5858,0.5841,0.5856,0.5858,0.5865,0.5877,0.5879,0.5871,0.5871,0.5888,0.589,0.5892,0.5901,0.5898,0.5899,0.5899,0.5924,0.5924,0.5924,0,0,0,0,0,0,0.5825,0.5828,0.5856,0.5844,0.5847,0.5856,0.5864,0.5866,0.587,0.5879,0.5881,0.5874,0.5888,0.589,0.59,0.5902,0.5899,0.59,0.5924,0.5924,0.5924,0.5922,0,0,0,0,0,0,0.5824,0.5828,0.5833,0.5844,0.5848,0.5866,0.5864,0.5866,0.5872,0.5872,0.5882,0.5884,0.5888,0.5898,0.5901,0.5903,0.5901,0.5923,0.5924,0.5924,0.5921,0.5922,0.5922,0,0,0,0,0,0.5822,0.5832,0.5833,0.5837,0.5855,0.5866,0.5868,0.5873,0.5872,0.5876,0.5881,0.5883,0.5901,0.5899,0.5902,0.5905,0.5923,0.5924,0.5924,0.5921,0.5922,0.5922,0,0,0,0,0,0,0.5822,0.5834,0.5835,0.5849,0.5856,0.5866,0.5872,0.5874,0.5882,0.5881,0.5887,0.5889,0.5897,0.5902,0.59,0.5912,0.5912,0.5913,0.5909,0.5909,0.591,0.5908,0.5901,0,0,0,0,0,0.5823,0.5832,0.5842,0.5853,0.5856,0.5863,0.5869,0.5872,0.5879,0.5882,0.5888,0.5895,0.5901,0.5906,0.5913,0.5922,0.5922,0.5925,0.5925,0.5925,0.5925,0.5927,0.5927,0.5925,0.5925,0.5925,0,0,0.5827,0.5834,0.584,0.5853,0.5859,0.5866,0.5866,0.5875,0.588,0.5883,0.5892,0.5896,0.5903,0.5912,0.5916,0.5916,0.5926,0.5925,0.5925,0.5925,0.5927,0.5927,0.5927,0.5925,0.5925,0.5925,0,0,0.5836,0.5844,0.5852,0.5858,0.5866,0.587,0.5872,0.5881,0.5884,0.5892,0.5894,0.5899,0.5911,0.5915,0.5919,0.5925,0.5926,0.5927,0.5927,0.5929,0.5929,0.5929,0.5929,0.5929,0.5927,0.5927,0.5927,0,0.5839,0.5851,0.5857,0.5864,0.5868,0.5871,0.5878,0.5883,0.5893,0.5895,0.5895,0.5907,0.5913,0.592,0.5921,0.5925,0.5925,0.5926,0.5929,0.5929,0.5929,0.5929,0.5929,0.5927,0.5927,0.5927,0.5927,0,0.5853,0.5861,0.5866,0.5875,0.588,0.5887,0.5892,0.5896,0.5897,0.59,0.5907,0.5913,0.5919,0.5921,0.5924,0.5928,0.5927,0.5928,0.5927,0.5929,0.5928,0.5929,0.5927,0.5927,0.5927,0.5927,0,0,0.5865,0.5874,0.5876,0.5878,0.5885,0.5891,0.5896,0.5902,0.5904,0.591,0.5913,0.5922,0.5921,0.5925,0.5927,0.5929,0.5929,0.5929,0.5929,0.5927,0.5931,0.5929,0.5929,0.593,0.593,0.593,0.5929,0,0.5874,0.5885,0.5888,0.5897,0.5902,0.5903,0.5907,0.5911,0.5913,0.5916,0.5919,0.5923,0.5924,0.5925,0.5927,0.5929,0.593,0.5929,0.5931,0.5931,0.5928,0.593,0.5929,0.5929,0.5929,0.5929,0.5929,0,0.5887,0.5891,0.59,0.5903,0.5906,0.591,0.5913,0.5918,0.592,0.5922,0.5924,0.5925,0.5928,0.5927,0.593,0.593,0.593,0.5931,0.5931,0.5931,0.593,0.5928,0.5929,0.5928,0.593,0.593,0.593,0,0.5891,0.59,0.5906,0.5908,0.5912,0.5915,0.5916,0.5919,0.5921,0.5924,0.5924,0.5928,0.5929,0.593,0.5931,0.5931,0.5933,0.5933,0.5932,0.5932,0.5932,0.5932,0.5932,0.5934,0.5934,0.5934,0.5934,0,0.5901,0.5905,0.5907,0.5911,0.5915,0.5917,0.592,0.5922,0.5924,0.5926,0.5926,0.5928,0.5929,0.593,0.5931,0.5931,0.5933,0.5932,0.5932,0.5931,0.5931,0.5932,0.5931,0.5934,0.5934,0.5934,0.5934,0,0.5907,0.5909,0.5914,0.5917,0.5918,0.592,0.5922,0.5924,0.5925,0.5927,0.5927,0.5929,0.5929,0.593,0.5932,0.5932,0.5932,0.5932,0.5931,0.593,0.5929,0.5928,0.5928,0.5927,0.5931,0.5931,0.5931,0,0.5912,0.5916,0.5918,0.5919,0.5921,0.5923,0.5924,0.5925,0.5926,0.5927,0.5928,0.5929,0.593,0.5931,0.5931,0.5931,0.5931,0.593,0.5931,0.5929,0.5928,0.5927,0.5926,0.593,0.593,0.593,0.593,0,0.592,0.592,0.5922,0.5924,0.5925,0.5926,0.5928,0.5928,0.5929,0.5929,0.593,0.593,0.593,0.593,0.5929,0.5929,0.5929,0.593,0.5929,0.5928,0.5926,0.5925,0.5929,0.593,0.593,0.593,0.593,0.593,0.5925,0.5927,0.5927,0.5929,0.5929,0.5929,0.593,0.593,0.5931,0.5931,0.5931,0.5931,0.593,0.5929,0.5928,0.5927,0.5927,0.5927,0.5927,0.5926,0.5925,0.5927,0.5927,0.5927,0.5927,0.5927,0.5927,0,0.5931,0.5931,0.5932,0.5933,0.5933,0.5932,0.5932,0.5932,0.5932,0.5931,0.5931,0.593,0.5929,0.5927,0.5926,0.5924,0.5924,0.5924,0.5923,0.5923,0.5926,0.5926,0.5924,0.5924,0.5924,0.5924,0.5924,0.5924,0.5934,0.5936,0.5935,0.5936,0.5935,0.5935,0.5935,0.5934,0.5933,0.5931,0.593,0.5929,0.5927,0.5925,0.5923,0.5922,0.5921,0.592,0.592,0.5923,0.5923,0.5923,0.5923,0.592,0.592,0.5916,0.5916,0.5916]}]]